User: anonymous
Location: Fisheating Creek Campgrounds
(26.9333°N, 81.3167°W)
Time: 03:03:40
(UTC-04:00)
Language:

NATO 3D Rocket - Orbit

View from above orbital plane
View from above orbital plane
View from above satellite
View from above satellite

Ground track
Ground track

The orbit data is extracted from the following two-line orbital elements,

1 15392U 84115B   14245.36734787  .00000235  00000-0  77339-4 0  1894
2 15392 021.4920 286.3933 1035027 338.0929 110.7098 12.45428059356893
Epoch (UTC): 02 September 2014 08:48:58
Eccentricity: 0.1035027
inclination: 21.4920°
perigee height: 670 km
apogee height: 2297 km
right ascension of ascending node: 286.3933°
argument of perigee: 338.0929°
revolutions per day: 12.45428059
mean anomaly at epoch: 110.7098°
orbit number at epoch: 35689

The dashed part of the orbit path shows where the satellite is in the earth's shadow,  

DLR